Location: Arrien
(42.8963°N, 1.0429°E)
Time: 09:34:54
(UTC+00:00)

ISS - Pass Details

Date: 24 February 2026
Orbit: 416 x 426 km, 51.6° (Epoch: 9 March)

Event Time Altitude Azimuth Distance (km) Brightness Sun altitude
Exits shadow 05:37:17 11° 321° (NW) 1,464 -1.4 -12.2°
Maximum altitude 05:39:44 20° 9° (N) 1,037 -1.7 -11.8°
Drops below altitude 10° 05:42:17 10° 59° (ENE) 1,492 0.0 -11.3°
Sets 05:44:46 0° 77° (ENE) 2,354 1.7 -10.8°
